Location: Montichiari
(45.4167°N, 10.3833°E)
Time: 15:41:23
(UTC+00:00)

Daily predictions for brighter satellites

Satellite Brightness Start Highest point End
(mag) Time Altitude Azimuth Time Altitude Azimuth Time Altitude Azimuth
ATLAS CENTAUR R/B 4.2 17:28:12 10° S 17:33:06 37° ESE 17:46:04 10° NE
CZ-2C R/B 4.2 17:30:28 10° SSW 17:35:07 38° W 17:39:39 10° NNW
NOSS 3-2 (C) 4.4 17:32:54 10° SSE 17:37:48 26° ESE 17:43:02 10° ENE
Cosmos 292 Rocket 3.8 17:33:51 10° S 17:38:35 64° ESE 17:43:23 10° NNE
Cosmos 2346 Rocket 4.4 17:32:34 10° N 17:38:39 73° E 17:44:41 10° SSE
Resurs 01 Rocket 2.1 17:36:06 10° SE 17:40:15 39° ENE 17:44:24 10° N
Okean 3 Rocket 3.7 17:36:04 10° N 17:40:35 61° E 17:45:04 10° SSE
Cosmos 1867 4.0 17:37:31 10° SW 17:42:58 70° NW 17:48:28 10° NNE
COSMOS 2428 4.3 17:38:48 10° WSW 17:44:04 38° NW 17:49:24 10° NNE
Cosmos 482 Debris 4.5 17:42:17 10° W 17:44:05 29° NNW 17:46:29 10° NE
Resurs 1-3 4.3 17:41:01 10° SE 17:44:59 34° ENE 17:48:58 10° N
Spot 1 4.4 17:42:41 10° SSE 17:47:21 57° ENE 17:51:48 10° N
CZ-4C R/B 2.2 17:42:25 10° SW 17:47:46 85° SE 17:53:53 10° NE
Cosmos 2237 Rocket 2.3 17:47:24 10° SSW 17:53:06 83° WNW 17:58:50 10° NNE
SAR-Lupe-4 4.1 17:51:30 10° S 17:55:02 63° WSW 17:58:36 10° NNW
ATLAS CENTAUR R/B 1.8 17:52:57 10° NW 17:57:13 63° WSW 18:01:06 10° SSE
NOSS 0 Rocket 4.3 17:51:30 10° SW 17:57:39 71° WNW 18:03:52 10° NNE
Cosmos 1484 Rocket 4.3 17:54:25 10° SSW 17:58:01 40° W 18:01:43 10° NNW
ALOS 2.9 17:54:05 10° SE 17:58:17 35° ENE 18:02:32 10° N
Cosmos 2056 Rocket 3.6 17:53:22 10° NNW 17:58:49 89° W 18:04:16 10° SSE
NOAA 12 4.2 17:53:41 10° SSE 17:58:57 87° WSW 18:04:16 10° NNW
Spot 2 Rocket 3.5 17:54:37 10° SSE 17:59:36 66° ENE 18:04:37 10° N
Cosmos 2034 Rocket 4.3 17:59:15 10° SSE 18:05:06 44° E 18:11:03 10° NNE
CZ-4B DEB 3.7 18:02:54 10° SE 18:05:46 30° ENE 18:08:42 10° N
ATLAS 5 CENTAUR R/B 2.7 18:02:03 10° S 18:06:02 27° ESE 18:10:17 10° ENE
Cosmos 1980 4.3 18:00:50 10° SW 18:06:25 62° WNW 18:12:03 10° NNE
Cosmos 1464 Rocket 4.0 18:02:18 10° S 18:08:26 62° E 18:14:32 10° NNE
SL-16 R/B 2.2 18:05:52 10° SSW 18:11:29 64° ESE 18:17:08 10° NNE
Cosmos 1674 4.2 18:08:46 10° NNE 18:11:36 19° ENE 18:12:30 18° E
ASTEX 1 4.1 18:08:32 10° NNE 18:12:53 30° E 18:17:10 10° SSE
USA 215 3.2 18:08:12 10° NE 18:14:44 69° SE 18:21:14 10° SW
COSMO-SKYMED 1 4.3 18:10:49 10° N 18:14:49 37° WNW 18:18:48 10° SW
Cosmos 1766 3.2 18:13:35 10° S 18:17:32 89° E 18:21:33 10° N
BREEZE-M DEB (TANK) 4.5 18:18:06 10° WSW 18:19:34 14° SSW 18:21:42 10° S
Helios 1A 3.0 18:17:25 10° SSE 18:21:37 86° W 18:25:50 10° NNW
Meteor 1-22 Rocket 4.4 18:23:56 10° SSW 18:29:16 70° WNW 18:34:34 10° N
Cosmos 1953 2.2 18:28:50 10° S 18:32:45 60° E 18:36:42 10° NNE
BREEZE-M DEB (TANK) 4.0 18:17:01 10° W 18:33:11 86° N 18:36:22 23° E
CZ-2D R/B 3.3 18:30:35 16° SSE 18:33:32 59° ENE 18:37:23 10° N
Cosmos 2219 Rocket 4.2 18:29:26 10° WSW 18:34:19 29° NW 18:39:15 10° N
Cosmos 2278 Rocket 4.4 18:30:00 10° NW 18:34:37 26° WSW 18:39:14 10° SSW
ATLAS 3B R/B 4.2 18:30:01 10° WSW 18:37:00 38° NW 18:43:43 10° NNE
Cosmos 1766 Rocket 3.6 18:32:44 10° N 18:37:09 81° W 18:41:29 10° S
H-2A R/B 4.0 18:46:05 15° NE 18:46:05 15° NE 18:48:06 10° NNE
Aureole 2 Rocket 3.6 18:41:16 10° SW 18:45:36 57° WNW 18:49:52 10° NNE
FENGYUN 3A 3.6 18:41:18 10° SSE 18:46:40 87° WSW 18:52:06 10° NNW
NOSS 3-2 (A) 3.5 18:45:03 10° SW 18:51:11 87° NW 18:57:57 10° NE
Cosmos 1805 3.3 18:47:30 10° S 18:51:26 83° W 18:55:24 10° N
H-2A R/B 2.8 18:51:08 20° S 18:53:47 83° WSW 18:57:42 10° NNW
Cosmos 2369 Rocket 2.8 18:49:38 10° NNW 18:54:55 39° NE 18:56:23 33° E
ERS-1 Rocket 3.4 18:54:36 36° E 18:55:35 40° ENE 19:00:16 10° N
Cosmos 1452 Rocket 3.8 18:50:25 10° NNW 18:55:39 67° WSW 19:00:17 13° S
USA 186 3.5 18:58:48 17° NNW 18:58:48 17° NNW 18:59:31 10° NNW
Cosmos 1603 3.7 18:52:53 10° S 18:58:30 59° ESE 19:04:10 10° NNE
Meteor 1-29 4.4 18:56:53 10° N 19:00:13 40° WNW 19:03:31 10° SW
SeaSat 1 2.4 18:57:08 10° NE 19:02:02 61° ESE 19:06:54 10° SSW
Cosmos-2242 3.4 19:02:02 10° SSW 19:06:21 65° W 19:10:44 10° N
Cosmos 1943 Rocket 3.4 19:02:45 10° N 19:07:20 25° NE 19:07:47 24° NE
Helios 1B rocket 4.2 19:05:25 10° N 19:09:08 33° WNW 19:12:49 10° SW
Cosmos 1544 3.3 19:06:44 10° SSW 19:10:27 71° W 19:14:12 10° N
Cosmos 1842 Rocket 3.4 19:11:06 64° SE 19:11:28 69° E 19:15:49 10° NNE
Cosmos 1470 3.7 19:13:02 36° NNE 19:13:02 36° NNE 19:15:29 10° NNE
Cosmos 1655 Rocket 4.3 19:06:04 10° N 19:11:59 43° ENE 19:12:49 41° E
Cosmos 1500 Rocket 3.4 19:07:37 10° N 19:12:04 85° E 19:13:05 53° SSE
Cosmos 1758 4.4 19:09:30 10° SSW 19:13:24 45° WNW 19:17:23 10° N
Cosmos 468 4.4 19:08:25 10° SSW 19:13:40 88° ESE 19:18:57 10° NNE
Resurs 01 Rocket 4.0 19:13:22 10° SW 19:16:51 22° W 19:20:21 10° NW
Nadezhda 4 Rocket 4.3 19:12:02 10° NNW 19:18:18 68° W 19:24:27 10° S
Cosmos 1420 Rocket 4.1 19:14:42 10° NNW 19:19:59 73° WSW 19:22:06 37° S
Cosmos 1092 Rocket 4.0 19:16:50 10° N 19:23:05 84° W 19:26:53 25° S
Cosmos 2151 3.6 19:21:49 10° N 19:24:56 45° NNE 19:24:56 45° NNE
Cosmos 2142 Rocket 4.4 19:24:39 32° SSE 19:27:44 69° E 19:34:06 10° NNE
NOSS 3-2 (C) 3.8 19:21:59 10° SW 19:28:06 66° NW 19:34:52 10° NE
CENTAUR R/B 4.5 19:26:23 10° S 19:39:13 - NE 19:26:38 11° S
Cosmos 1269 Rocket 4.0 19:28:42 10° SSW 19:33:59 82° WNW 19:39:18 10° NNE
Cosmos 1939 Rocket 3.7 19:36:49 44° N 19:36:49 44° N 19:39:38 10° NNW
ALOS 4.2 19:31:48 10° SSW 19:35:47 27° W 19:39:46 10° NW
CZ-4C R/B 4.3 19:32:24 10° W 19:37:07 26° NNW 19:42:24 10° NNE
Cosmos 1634 Rocket 3.9 19:35:37 27° S 19:39:18 87° E 19:45:33 10° N
H-2A R/B 4.1 19:41:51 14° NNE 19:41:51 14° NNE 19:43:09 10° NNE
Cosmos 2026 Rocket 3.8 19:34:04 10° N 19:40:10 77° E 19:40:54 68° SE
Cosmos 1048 Rocket 4.0 19:36:05 10° SSW 19:41:25 82° WNW 19:46:42 10° NNE
Cosmos 2058 4.5 19:41:56 10° N 19:43:57 28° N 19:43:57 28° N
GP-B 3.7 19:42:03 10° N 19:46:25 54° W 19:46:45 53° WSW
Cosmos 1674 4.2 19:43:50 10° NNW 19:47:20 33° W 19:47:28 33° W
Envisat 3.0 19:49:23 79° W 19:49:23 79° W 19:54:23 10° NNW
ATLAS 5 CENTAUR R/B 2.7 19:45:40 10° WSW 19:50:24 49° NW 19:55:10 12° NNE
SL-16 R/B 4.4 19:51:28 10° WSW 19:56:05 25° NW 20:00:42 10° N
USA 215 4.0 19:52:16 14° NE 19:57:36 49° NNW 20:03:48 10° W
Cosmos 839 Rocket 4.2 19:50:39 10° NW 19:58:33 81° WSW 19:59:29 68° S
Terra 4.3 20:07:59 13° NNE 20:07:59 13° NNE 20:08:38 10° NNE
Exosat Rocket 4.4 20:00:57 10° NNW 20:07:23 81° WSW 20:08:58 61° S
ARGOS 4.2 20:15:39 37° N 20:15:39 37° N 20:19:00 10° N
H-2A R/B 4.0 20:23:14 27° NNW 20:23:14 27° NNW 20:25:23 10° NNW
Cosmos 2369 Rocket 3.5 20:33:48 10° NW 20:38:11 34° W 20:38:11 34° W
Cosmos 1943 Rocket 3.5 20:45:59 10° NNW 20:49:18 36° NW 20:49:18 36° NW
H-2A R/B 4.4 21:22:30 18° NNW 21:22:30 18° NNW 21:23:48 10° NNW
CENTAUR R/B 4.3 21:26:20 26° NNE 21:26:20 26° NNE 21:29:34 10° NNE
